パンスターズ彗星

C/2017 AB5 ( PanSTARRS )

English version
Home page
Updated on February 13, 2018

---------------------------------------------------------------------

・ プロフィール

発見日 2017年1月3日
発見光度 21.3等
発見者 Pan-STARRS 1 telescope (Haleakala)

・ 写真集

・ 軌道要素

Epoch 2018 Feb. 11.0 TT = JDT 2458160.5
T 2018 Feb. 17.31675 TT                                 MPCW
q   9.2168799            (2000.0)            P               Q
z  +0.0000211      Peri.   78.36653     -0.41232781     -0.83531928
 +/-0.0000053      Node    42.69161     +0.47399870     -0.53756148
e   0.9998058      Incl.   32.43128     +0.77801736     -0.11519270
From 46 observations 2017 Jan. 3-2018 Jan. 20, mean residual 0".3.

・ 光度変化

        m1 = 5.5 + 5 logΔ + 10.0 log r

---------------------------------------------------------------------

軌道要素はM.P.E.C. 2018-B155に掲載されたものです。
光度グラフはComet for Windowsで作成したものです。

---------------------------------------------------------------------

Copyright(C) Seiichi Yoshida (comet@aerith.net). All rights reserved.